Location: Baix
(44.7118°N, 4.7648°E)
Time: 16:58:43
(UTC+00:00)

Cosmos 2279 Rocket - Pass Details

Date: 07 August 2020
Orbit: 965 x 978 km, 82.9° (Epoch: 22 September)

Event Time Altitude Azimuth Distance (km) Brightness Sun altitude
Exits shadow 01:44:44 45° 181° (S) 1,297 4.2 -23.3°
Maximum altitude 01:46:50 85° 97° (E) 975 3.9 -23.1°
Drops below altitude 10° 01:53:04 10° 9° (N) 2,717 7.2 -22.5°
Sets 01:55:34 0° 9° (N) 3,669 8.1 -22.3°
